Weather History for Gilze-Rijen, Netherlands

Change the Weather History Date:

Thursday, August 2, 2012

  Actual Average Record
Temperature  
Mean Temperature 64 °F -  
Max Temperature 71 °F 71 °F 95 °F (2013)
Min Temperature 57 °F 54 °F 50 °F (2005)
Degree Days  
Heating Degree Days 1    
Growing Degree Days 14 (Base 50)    
Moisture  
Dew Point 59 °F    
Average Humidity 79    
Maximum Humidity 94    
Minimum Humidity 57    
Precipitation  
Precipitation 0.00 in - - ()
Sea Level Pressure  
Sea Level Pressure 29.88 in    
Wind  
Wind Speed 6 mph ()    
Max Wind Speed 12 mph    
Max Gust Speed 22 mph    
Visibility 5.5 miles    
Events Rain    
Averages and records for this station are not official NWS values.
T = Trace of Precipitation, MM = Missing Value Source: Averaged Metar Reports

Daily Weather History Graph

Daily Weather History Graph

Search for Another Location

Airport:

Trip Planner

Search our weather history database for the weather conditions in past years. The results will help you decide how hot, cold, wet, or windy it might be!

Date:

Astronomy

Aug. 02, 2012 Rise Set
Actual Time 6:05 AM CEST 9:26 PM CEST
Civil Twilight 5:25 AM CEST 10:06 PM CEST
Nautical Twilight 4:31 AM CEST 10:59 PM CEST
Astronomical Twilight 3:16 AM CEST 12:12 AM CEST
Moon 9:08 PM CEST (8/2) 6:34 AM CEST (8/2)
Length of Visible Light 16h 41m
Length of Day
15h 20m
Full, 100% of the Moon is Illuminated
Aug 2
Full
Aug 9
Last Quarter
Aug 17
New
Aug 24
First Quarter
Aug 31
Full

Hourly Weather History & Observations

Time (CEST) Temp. Dew Point Humidity Pressure Visibility Wind Dir Wind Speed Gust Speed Precip Events Conditions
12:25 AM 68.0 °F 62.6 °F 83% 29.77 in 6.2 mi NNE 4.6 mph - N/A   Mostly Cloudy
12:55 AM 66.2 °F 62.6 °F 88% 29.74 in 6.2 mi NE 5.8 mph - N/A   Partly Cloudy
1:25 AM 66.2 °F 62.6 °F 88% 29.77 in 6.2 mi North 5.8 mph - N/A   Overcast
1:55 AM 64.4 °F 62.6 °F 94% 29.77 in 6.2 mi WNW 6.9 mph - N/A   Overcast
2:25 AM 66.2 °F 62.6 °F 88% 29.77 in 6.2 mi West 6.9 mph - N/A   Overcast
2:55 AM 64.4 °F 62.6 °F 94% 29.77 in 6.2 mi SW 3.5 mph - N/A   Overcast
3:25 AM 66.2 °F 62.6 °F 88% 29.77 in 6.2 mi West 5.8 mph - N/A   Overcast
3:55 AM 66.2 °F 62.6 °F 88% 29.77 in 6.2 mi WSW 4.6 mph - N/A   Mostly Cloudy
4:25 AM 64.4 °F 62.6 °F 94% 29.77 in 6.2 mi WSW 4.6 mph - N/A   Overcast
4:55 AM 64.4 °F 62.6 °F 94% 29.80 in 6.2 mi SW 4.6 mph - N/A   Mostly Cloudy
5:25 AM 64.4 °F 62.6 °F 94% 29.80 in 5.0 mi SW 4.6 mph - N/A   Mostly Cloudy
5:29 AM 64.4 °F 62.6 °F 94% 29.80 in 3.1 mi SW 4.6 mph - N/A   Overcast
5:36 AM 64.4 °F 62.6 °F 94% 29.80 in - SSW 4.6 mph - N/A   Overcast
5:40 AM 64.4 °F 62.6 °F 94% 29.80 in 1.3 mi SSW 4.6 mph - N/A   Overcast
5:49 AM 64.4 °F 62.6 °F 94% 29.80 in - SSW 5.8 mph - N/A   Scattered Clouds
5:55 AM 64.4 °F 60.8 °F 88% 29.80 in 3.7 mi SSW 5.8 mph - N/A   Partly Cloudy
6:25 AM 64.4 °F 60.8 °F 88% 29.80 in 3.7 mi SW 5.8 mph - N/A   Mostly Cloudy
6:55 AM 64.4 °F 62.6 °F 94% 29.83 in 3.1 mi SW 4.6 mph - N/A   Overcast
7:25 AM 62.6 °F 60.8 °F 94% 29.80 in 3.1 mi SSW 3.5 mph - N/A   Mostly Cloudy
7:55 AM 64.4 °F 62.6 °F 94% 29.83 in 3.7 mi SSW 4.6 mph - N/A   Overcast
8:11 AM 64.4 °F 62.6 °F 94% 29.83 in 3.7 mi SW 3.5 mph - N/A   Mostly Cloudy
8:15 AM 64.4 °F 62.6 °F 94% 29.83 in 3.7 mi SSW 3.5 mph - N/A   Mostly Cloudy
8:19 AM 66.2 °F 64.4 °F 94% 29.83 in - SW 3.5 mph - N/A   Mostly Cloudy
8:25 AM 66.2 °F 64.4 °F 94% 29.83 in 3.1 mi SW 4.6 mph - N/A Rain Light Rain
8:30 AM 66.2 °F 64.4 °F 94% 29.83 in 3.7 mi SW 4.6 mph - N/A   Mostly Cloudy
8:40 AM 66.2 °F 62.6 °F 88% 29.83 in 5.6 mi SW 5.8 mph - N/A   Mostly Cloudy
8:55 AM 66.2 °F 62.6 °F 88% 29.83 in 6.2 mi WSW 5.8 mph - N/A   Mostly Cloudy
9:25 AM 64.4 °F 59.0 °F 83% 29.86 in 6.2 mi WSW 9.2 mph - N/A   Overcast
9:32 AM 64.4 °F 59.0 °F 83% 29.86 in 6.2 mi WSW 10.4 mph - N/A   Overcast
9:55 AM 64.4 °F 59.0 °F 83% 29.86 in 6.2 mi WSW 8.1 mph - N/A   Overcast
10:02 AM 64.4 °F 59.0 °F 83% 29.86 in 6.2 mi WSW 8.1 mph - N/A   Overcast
10:13 AM 64.4 °F 59.0 °F 83% 29.86 in 6.2 mi WSW 10.4 mph - N/A   Mostly Cloudy
10:18 AM 64.4 °F 59.0 °F 83% 29.89 in 6.2 mi WSW 8.1 mph - N/A   Overcast
10:25 AM 64.4 °F 59.0 °F 83% 29.89 in 6.2 mi WSW 9.2 mph - N/A   Mostly Cloudy
10:55 AM 64.4 °F 57.2 °F 77% 29.89 in 6.2 mi WSW 9.2 mph - N/A   Mostly Cloudy
11:06 AM 66.2 °F 57.2 °F 73% 29.89 in 6.2 mi WSW 9.2 mph - N/A   Overcast
11:19 AM 66.2 °F 57.2 °F 73% 29.89 in 6.2 mi WSW 11.5 mph - N/A   Overcast
11:25 AM 66.2 °F 57.2 °F 73% 29.89 in 6.2 mi WSW 11.5 mph - N/A   Overcast
11:33 AM 66.2 °F 57.2 °F 73% 29.89 in 6.2 mi SW 10.4 mph - N/A   Overcast
11:47 AM 66.2 °F 57.2 °F 73% 29.89 in 6.2 mi WSW 11.5 mph - N/A   Mostly Cloudy
11:55 AM 68.0 °F 57.2 °F 68% 29.89 in 6.2 mi WSW 10.4 mph - N/A   Scattered Clouds
11:57 AM 66.2 °F 55.4 °F 68% 29.89 in 6.2 mi SW 10.4 mph - N/A   Mostly Cloudy
12:01 PM 66.2 °F 55.4 °F 68% 29.89 in 6.2 mi SW 10.4 mph - N/A   Mostly Cloudy
12:14 PM 68.0 °F 57.2 °F 68% 29.89 in 6.2 mi SW 9.2 mph - N/A   Mostly Cloudy
12:25 PM 68.0 °F 57.2 °F 68% 29.92 in 6.2 mi WSW 9.2 mph - N/A   Scattered Clouds
12:55 PM 68.0 °F 55.4 °F 64% 29.92 in 6.2 mi WSW 8.1 mph - N/A   Overcast
1:25 PM 68.0 °F 57.2 °F 68% 29.92 in 6.2 mi WSW 6.9 mph - N/A   Overcast
1:48 PM 68.0 °F 57.2 °F 68% 29.92 in 6.2 mi WSW 8.1 mph - N/A   Mostly Cloudy
1:55 PM 69.8 °F 57.2 °F 64% 29.92 in 6.2 mi WSW 8.1 mph - N/A   Mostly Cloudy
2:25 PM 68.0 °F 55.4 °F 64% 29.92 in 6.2 mi SW 11.5 mph - N/A   Mostly Cloudy
2:55 PM 66.2 °F 55.4 °F 68% 29.92 in 6.2 mi SW 10.4 mph - N/A   Overcast
3:25 PM 68.0 °F 57.2 °F 68% 29.92 in 6.2 mi SW 10.4 mph - N/A   Overcast
3:55 PM 71.6 °F 55.4 °F 57% 29.92 in 6.2 mi WSW 11.5 mph - N/A   Mostly Cloudy
4:02 PM 69.8 °F 55.4 °F 60% 29.92 in 6.2 mi West 9.2 mph 21.9 mph N/A   Mostly Cloudy
4:25 PM 69.8 °F 55.4 °F 60% 29.92 in 6.2 mi SW 9.2 mph - N/A   Scattered Clouds
4:27 PM 71.6 °F 57.2 °F 60% 29.92 in 6.2 mi WSW 8.1 mph - N/A   Scattered Clouds
4:55 PM 71.6 °F 55.4 °F 57% 29.92 in 6.2 mi WSW 8.1 mph - N/A   Mostly Cloudy
5:25 PM 71.6 °F 57.2 °F 60% 29.92 in 6.2 mi West 5.8 mph - N/A   Mostly Cloudy
5:55 PM 71.6 °F 57.2 °F 60% 29.92 in 6.2 mi WSW 6.9 mph - N/A   Partly Cloudy
6:25 PM 71.6 °F 55.4 °F 57% 29.92 in 6.2 mi West 8.1 mph - N/A   Scattered Clouds
6:55 PM 71.6 °F 55.4 °F 57% 29.92 in 6.2 mi West 9.2 mph - N/A   Partly Cloudy
7:25 PM 71.6 °F 55.4 °F 57% 29.92 in 6.2 mi WSW 5.8 mph - N/A   Unknown
7:55 PM 69.8 °F 55.4 °F 60% 29.95 in 6.2 mi West 4.6 mph - N/A   Unknown
8:25 PM 69.8 °F 55.4 °F 60% 29.95 in 6.2 mi West 4.6 mph - N/A   Partly Cloudy
8:55 PM 68.0 °F 55.4 °F 64% 29.95 in 6.2 mi West 3.5 mph - N/A   Unknown
9:25 PM 66.2 °F 55.4 °F 68% 29.95 in 6.2 mi WSW 3.5 mph - N/A   Unknown
9:40 PM 62.6 °F 55.4 °F 77% 29.95 in 3.1 mi WSW 2.3 mph - N/A   Haze
9:44 PM 62.6 °F 55.4 °F 77% 29.95 in 1.8 mi SW 2.3 mph - N/A   Haze
9:48 PM 62.6 °F 55.4 °F 77% 29.95 in - SSW 2.3 mph - N/A   Haze
9:55 PM 60.8 °F 55.4 °F 82% 29.95 in 3.1 mi South 2.3 mph - N/A   Haze
10:03 PM 60.8 °F 57.2 °F 88% 29.95 in 5.0 mi South 2.3 mph - N/A   Mist
10:08 PM 60.8 °F 55.4 °F 82% 29.95 in 4.3 mi South 2.3 mph - N/A   Mist
10:12 PM 59.0 °F 55.4 °F 88% 29.95 in 6.2 mi SSE 1.2 mph - N/A   Unknown
10:21 PM 59.0 °F 55.4 °F 88% 29.95 in 3.7 mi SSW 2.3 mph - N/A   Mist
10:25 PM 59.0 °F 55.4 °F 88% 29.95 in 6.2 mi SSW 2.3 mph - N/A   Partly Cloudy
10:38 PM 59.0 °F 55.4 °F 88% 29.95 in 6.2 mi SW 1.2 mph - N/A   Unknown
10:55 PM 57.2 °F 55.4 °F 94% 29.95 in 6.2 mi SSW 1.2 mph - N/A   Unknown
11:25 PM 57.2 °F 55.4 °F 94% 29.95 in 6.2 mi SSW 1.2 mph - N/A   Unknown
11:55 PM 57.2 °F 55.4 °F 94% 29.98 in 6.2 mi ESE 1.2 mph - N/A   Unknown